FW6663 Weather Reports


time (UTC)temp
C
wind
direction
speed
KPH
gust
KPH
rain 1hr
cm
rain 24hr
cm
rain mn
cm
humidity
%
barometer
mb
20260902014537 11 0 0.0 0.0 0.00 0.00 0.00 92 1021.8
20260902013037 11 0 0.0 1.6 0.00 0.00 0.00 92 1021.7
20260902011536 11 0 0.0 0.0 0.00 0.00 0.00 92 1021.8
20260902010034 11 0 0.0 0.0 0.00 0.00 0.00 92 1021.8
20260902004541 11 0 0.0 0.0 0.00 0.00 0.00 92 1021.8
20260902003037 10 0 0.0 0.0 0.00 0.00 0.00 91 1022.0
20260902001534 10 0 0.0 0.0 0.00 0.00 0.00 91 1021.8
20260902000035 11 0 0.0 0.0 0.00 0.00 0.00 91 1021.8
20260901234534 11 0 0.0 0.0 0.00 0.00 0.00 90 1021.8
20260901233038 11 0 0.0 0.0 0.00 0.00 0.00 91 1021.9
20260901231537 11 0 0.0 0.0 0.00 0.00 0.00 90 1021.8
20260901230037 11 0 0.0 0.0 0.00 0.00 0.00 89 1022.0
20260901224534 11 0 0.0 0.0 0.00 0.00 0.00 89 1022.0
20260901223038 12 0 0.0 0.0 0.00 0.00 0.00 88 1022.0
20260901221536 12 0 0.0 0.0 0.00 0.00 0.00 87 1022.0
20260901220106 13 0 0.0 0.0 0.00 0.00 0.00 86 1022.1
20260901214535 13 0 0.0 0.0 0.00 0.00 0.00 85 1022.2
20260901213100 13 0 0.0 0.0 0.00 0.00 0.00 83 1022.2
20260901211536 14 0 0.0 0.0 0.00 0.00 0.00 82 1022.4
20260901210044 15 0 0.0 0.0 0.00 0.00 0.00 81 1022.4
20260901204539 15 0 0.0 1.6 0.00 0.00 0.00 81 1022.4
20260901203049 15 0 0.0 1.6 0.00 0.00 0.00 82 1022.4
20260901201534 15 0 0.0 0.0 0.00 0.00 0.00 82 1022.2
20260901200034 15 0 0.0 1.6 0.00 0.00 0.00 82 1022.2
20260901194541 14 0 0.0 0.0 0.00 0.00 0.00 82 1022.2
20260901193046 15 0 0.0 0.0 0.00 0.00 0.00 80 1022.1
20260901191538 15 0 0.0 0.0 0.00 0.00 0.00 77 1021.8
20260901190036 16 0 0.0 1.6 0.00 0.00 0.00 75 1021.8
20260901184534 16 0 0.0 3.2 0.00 0.00 0.00 73 1021.6
20260901183041 16 0 0.0 1.6 0.00 0.00 0.00 72 1021.5
20260901181535 16 0 0.0 1.6 0.00 0.00 0.00 73 1021.4
20260901180036 17 0 0.0 0.0 0.00 0.00 0.00 71 1021.5
20260901174537 17 0.0 0.0 0.00 0.00 0.00 69 1021.6
20260901173049 18 0 0.0 0.0 0.00 0.00 0.00 68 1021.5
20260901171538 18 0.0 0.0 0.00 0.00 0.00 67 1021.6
20260901170034 19 0.0 0.0 0.00 0.00 0.00 65 1021.6
20260901164532 20 0.0 0.0 0.00 0.00 0.00 64 1021.5
20260901163034 20 0.0 0.0 0.00 0.00 0.00 63 1021.4
20260901161538 20 101 0.0 14.5 0.00 0.00 0.00 61 1021.3
20260901160038 20 0 0.0 0.0 0.00 0.00 0.00 60 1021.4
20260901154538 20 0.0 0.0 0.00 0.00 0.00 62 1021.5
20260901153039 20 113 1.6 0.0 0.00 0.00 0.00 60 1021.6
20260901151537 20 0.0 0.0 0.00 0.00 0.00 61 1021.5
20260901150035 21 82 1.6 0.0 0.00 0.00 0.00 61 1021.5
20260901144533 21 82 3.2 0.0 0.00 0.00 0.00 56 1021.6
20260901143043 22 0.0 0.0 0.00 0.00 0.00 55 1021.6
20260901141534 21 0.0 0.0 0.00 0.00 0.00 57 1021.6
20260901140051 21 0.0 0.0 0.00 0.00 0.00 58 1021.5
20260901134540 21 100 4.8 4.8 0.00 0.00 0.00 57 1021.6
20260901133040 21 96 4.8 0.0 0.00 0.00 0.00 60 1021.6
20260901131538 21 0.0 0.0 0.00 0.00 0.00 60 1021.7
20260901130040 21 0.0 0.0 0.00 0.00 0.00 57 1021.8
20260901124534 20 0.0 0.0 0.00 0.00 0.00 66 1021.9
20260901123037 20 0.0 0.0 0.00 0.00 0.00 66 1021.9
20260901121533 21 0.0 0.0 0.00 0.00 0.00 63 1022.0
20260901120050 22 0.0 0.0 0.00 0.00 0.00 61 1021.9
20260901114535 21 0.0 0.0 0.00 0.00 0.00 65 1021.9
20260901113043 21 79 1.6 16.1 0.00 0.00 0.00 67 1021.9
20260901111534 21 79 4.8 12.9 0.00 0.00 0.00 68 1021.8
20260901110043 21 64 0.0 0.0 0.00 0.00 0.00 72 1021.9
20260901104536 21 0.0 0.0 0.00 0.00 0.00 69 1022.1
20260901103037 20 0.0 0.0 0.00 0.00 0.00 73 1021.9
20260901101535 20 0.0 0.0 0.00 0.00 0.00 76 1022.0
20260901100037 18 0.0 0.0 0.00 0.00 0.00 78 1022.1
20260901094539 20 0.0 0.0 0.00 0.00 0.00 75 1022.1
20260901093038 19 0.0 0.0 0.00 0.00 0.00 79 1022.0
20260901091535 18 0.0 0.0 0.00 0.00 0.00 80 1021.9
20260901090036 18 0.0 0.0 0.00 0.00 0.00 82 1021.8
20260901084534 18 0.0 0.0 0.00 0.00 0.00 83 1021.7
20260901083038 17 32 4.8 0.0 0.00 0.00 0.00 83 1021.6
20260901081537 17 0.0 0.0 0.00 0.00 0.00 84 1021.5
20260901080036 17 0.0 0.0 0.00 0.00 0.00 85 1021.4
20260901074535 16 43 4.8 14.5 0.00 0.00 0.00 88 1021.2
20260901073037 15 79 1.6 12.9 0.00 0.00 0.00 88 1021.1
20260901071536 15 87 1.6 11.3 0.00 0.00 0.00 88 1021.1
20260901070037 15 72 3.2 9.7 0.00 0.00 0.00 89 1021.1
20260901064534 15 32 3.2 14.5 0.00 0.00 0.00 89 1020.9
20260901063035 15 77 3.2 11.3 0.00 0.00 0.00 90 1020.9
20260901061534 15 20 1.6 11.3 0.00 0.00 0.00 90 1021.0
20260901060040 15 82 1.6 9.7 0.00 0.00 0.00 90 1020.7
20260901054538 14 97 1.6 8.0 0.00 0.00 0.00 91 1020.6
20260901053052 14 67 1.6 9.7 0.00 0.00 0.00 91 1020.5
20260901051554 14 58 1.6 9.7 0.00 0.00 0.00 90 1020.4
20260901050037 14 0 1.6 9.7 0.00 0.00 0.00 90 1020.2
20260901044537 14 88 3.2 9.7 0.00 0.00 0.00 90 1020.2
20260901043036 14 52 3.2 12.9 0.00 0.00 0.00 90 1020.1
20260901041535 15 107 3.2 11.3 0.00 0.00 0.00 90 1020.0
20260901040049 15 77 3.2 14.5 0.00 0.00 0.00 90 1020.0
20260901034541 15 89 1.6 6.4 0.00 0.00 0.00 90 1019.9
20260901033036 15 57 1.6 14.5 0.00 0.00 0.00 90 1019.8
20260901031535 15 353 3.2 11.3 0.00 0.00 0.00 90 1019.8
20260901030034 15 100 3.2 14.5 0.00 0.00 0.00 90 1019.8
20260901024534 15 109 3.2 11.3 0.00 0.00 0.00 90 1019.8
20260901023048 15 63 3.2 11.3 0.00 0.00 0.00 90 1019.8
20260901021533 14 352 3.2 8.0 0.00 0.00 0.00 90 1019.8
20260901020041 14 60 1.6 4.8 0.00 0.00 0.00 90 1019.7